Location: Hertford
(51.8000°N, 0.0667°W)
Time: 22:11:43
(UTC+00:00)

Cosmos 1844 Rocket - Pass Details

Date: 18 September 2020
Orbit: 823 x 846 km, 71.0° (Epoch: 20 October)

Event Time Altitude Azimuth Distance (km) Brightness Sun altitude
Rises 21:23:09 0° 229° (SW) 3,353 5.9 -28.0°
Reaches altitude 10° 21:25:40 10° 236° (SW) 2,425 5.2 -28.3°
Maximum altitude 21:31:01 47° 310° (NW) 1,095 3.6 -28.8°
Drops below altitude 10° 21:36:25 10° 23° (NNE) 2,450 5.4 -29.4°
Sets 21:38:59 0° 30° (NNE) 3,391 6.1 -29.6°
